Janesville, WI

3:32 AM CST on November 13, 2019 (GMT -0600)
Rock County

Weather History for KJVL - October, 2019

Change the Weather History Date:

Sunday, October 20, 2019

  Actual Average Record
Temperature  
Mean Temperature 58 °F -  
Max Temperature 69 °F 57 °F 80 °F (2017)
Min Temperature 48 °F 38 °F 20 °F (1992)
Degree Days  
Heating Degree Days 6    
Growing Degree Days 8 (Base 50)    
Moisture  
Dew Point 47 °F    
Average Humidity 81    
Maximum Humidity 100    
Minimum Humidity 31    
Precipitation  
Precipitation 0.00 in - - ()
Sea Level Pressure  
Sea Level Pressure 29.86 in    
Wind  
Wind Speed 5 mph ()    
Max Wind Speed 9 mph    
Max Gust Speed -    
Visibility 9.7 miles    
Events      
Averages and records for this station are not official NWS values.
T = Trace of Precipitation, MM = Missing Value Source: Averaged Metar Reports

Daily Weather History Graph

Daily Weather History Graph

Search for Another Location

Airport or City:

Astronomy

Oct. 20, 2019 Rise Set
Actual Time 7:14 AM CDT 6:06 PM CDT
Civil Twilight 6:46 AM CDT 6:34 PM CDT
Nautical Twilight 6:13 AM CDT 7:07 PM CDT
Astronomical Twilight 5:40 AM CDT 7:40 PM CDT
Moon 11:09 PM CDT (10/20) 1:48 PM CDT (10/20)
Length of Visible Light 11h 48m
Length of Day
10h 51m
Waning Gibbous, 59% of the Moon is Illuminated
Oct 20
Waning Gibbous
Oct 21
Last Quarter
Oct 27
New
Nov 4
First Quarter
Nov 12
Full

Hourly Weather History & Observations

Time (CDT) Temp. Dew Point Humidity Pressure Visibility Wind Dir Wind Speed Gust Speed Precip Events Conditions
12:15 AM 51.8 °F 51.8 °F 100% 29.77 in 10.0 mi WNW 4.6 mph - N/A   Overcast
12:35 AM 51.8 °F 51.8 °F 100% 29.77 in 10.0 mi WNW 4.6 mph - N/A   Overcast
12:55 AM 51.8 °F 51.8 °F 100% 29.77 in 10.0 mi WNW 3.5 mph - N/A   Overcast
1:15 AM 51.8 °F 51.8 °F 100% 29.78 in 10.0 mi WNW 6.9 mph - N/A   Overcast
1:35 AM 51.8 °F 51.8 °F 100% 29.78 in 10.0 mi NW 5.8 mph - N/A   Overcast
1:55 AM 51.8 °F 51.8 °F 100% 29.78 in 10.0 mi NW 3.5 mph - N/A   Overcast
2:15 AM 51.8 °F 51.8 °F 100% 29.79 in 10.0 mi WNW 4.6 mph - N/A   Overcast
2:35 AM 50.0 °F 50.0 °F 100% 29.80 in 10.0 mi NNW 5.8 mph - N/A   Overcast
2:55 AM 51.8 °F 51.8 °F 100% 29.81 in 10.0 mi NW 6.9 mph - N/A   Overcast
3:15 AM 50.0 °F 50.0 °F 100% 29.81 in 10.0 mi NW 9.2 mph - N/A   Overcast
3:35 AM 50.0 °F 50.0 °F 100% 29.81 in 10.0 mi NW 5.8 mph - N/A   Overcast
3:55 AM 50.0 °F 50.0 °F 100% 29.81 in 10.0 mi NW 4.6 mph - N/A   Overcast
4:15 AM 50.0 °F 50.0 °F 100% 29.82 in 10.0 mi NW 4.6 mph - N/A   Overcast
4:35 AM 50.0 °F 50.0 °F 100% 29.83 in 10.0 mi NW 8.1 mph - N/A   Overcast
4:55 AM 50.0 °F 50.0 °F 100% 29.84 in 10.0 mi WNW 6.9 mph - N/A   Overcast
5:15 AM 50.0 °F 50.0 °F 100% 29.85 in 10.0 mi NNW 4.6 mph - N/A   Overcast
5:45 AM 48.2 °F 48.2 °F 100% 29.86 in 10.0 mi NNW 8.1 mph - N/A   Overcast
6:45 AM 48.2 °F 48.2 °F 100% 29.87 in 10.0 mi NNW 4.6 mph - N/A   Overcast
7:45 AM 50.0 °F 50.0 °F 100% 29.89 in 6.0 mi Calm Calm - N/A   Overcast
8:45 AM 50.0 °F 50.0 °F 100% 29.91 in 6.0 mi Calm Calm - N/A   Overcast
9:45 AM 51.8 °F 51.8 °F 100% 29.92 in 6.0 mi Calm Calm - N/A   Mostly Cloudy
10:45 AM 55.4 °F 48.2 °F 77% 29.92 in 10.0 mi Calm Calm - N/A   Scattered Clouds
11:45 AM 60.8 °F 48.2 °F 63% 29.93 in 10.0 mi Calm Calm - N/A   Scattered Clouds
12:45 PM 64.4 °F 46.4 °F 52% 29.91 in 10.0 mi Calm Calm - N/A   Scattered Clouds
1:45 PM 66.2 °F 42.8 °F 43% 29.90 in 10.0 mi Calm Calm - N/A   Clear
2:45 PM 69.8 °F 37.4 °F 31% 29.89 in 10.0 mi SE 5.8 mph - N/A   Clear
3:45 PM 69.8 °F 37.4 °F 31% 29.89 in 10.0 mi ESE 5.8 mph - N/A   Clear
4:45 PM 64.4 °F 39.2 °F 40% 29.89 in 10.0 mi SE 6.9 mph - N/A   Clear
5:45 PM 60.8 °F 39.2 °F 45% 29.89 in 10.0 mi SE 6.9 mph - N/A   Partly Cloudy
6:45 PM 57.2 °F 41.0 °F 55% 29.90 in 10.0 mi ESE 6.9 mph - N/A   Clear
7:45 PM 57.2 °F 42.8 °F 59% 29.89 in 10.0 mi ESE 6.9 mph - N/A   Clear
8:45 PM 53.6 °F 44.6 °F 72% 29.89 in 10.0 mi ESE 6.9 mph - N/A   Clear
8:55 PM 53.6 °F 44.6 °F 72% 29.89 in 10.0 mi East 8.1 mph - N/A   Clear
9:15 PM 51.8 °F 44.6 °F 76% 29.89 in 10.0 mi ESE 3.5 mph - N/A   Clear
9:35 PM 51.8 °F 42.8 °F 71% 29.89 in 10.0 mi ESE 5.8 mph - N/A   Clear
9:55 PM 51.8 °F 42.8 °F 71% 29.89 in 10.0 mi ESE 4.6 mph - N/A   Clear
10:15 PM 50.0 °F 42.8 °F 76% 29.89 in 10.0 mi ESE 6.9 mph - N/A   Clear
10:35 PM 50.0 °F 42.8 °F 76% 29.88 in 10.0 mi East 6.9 mph - N/A   Clear
10:55 PM 50.0 °F 42.8 °F 76% 29.87 in 10.0 mi East 5.8 mph - N/A   Clear
11:15 PM 50.0 °F 42.8 °F 76% 29.87 in 10.0 mi East 4.6 mph - N/A   Clear
11:35 PM 50.0 °F 42.8 °F 76% 29.87 in 10.0 mi ESE 6.9 mph - N/A   Clear
11:55 PM 50.0 °F 42.8 °F 76% 29.87 in 10.0 mi ESE 6.9 mph - N/A   Clear